OE3REE-13 Weather Reports


time (UTC)temp
C
wind
direction
speed
KPH
gust
KPH
rain 1hr
cm
rain 24hr
cm
rain mn
cm
humidity
%
barometer
mb
20260905234907 16 315 0.0 3.2 0.00 0.43 0.00 80 1030.0
20260905233900 16 0.0 0.0 0.00 0.43 0.00 80 1030.0
20260905232909 16 0.0 0.0 0.00 0.43 0.00 79 1029.9
20260905231904 16 0.0 0.0 0.00 0.43 0.00 78 1029.9
20260905230858 17 0.0 0.0 0.00 0.43 0.00 78 1029.8
20260905225908 17 315 0.0 3.2 0.00 0.43 0.00 78 1029.7
20260905224922 17 0.0 0.0 0.00 0.43 0.00 78 1029.7
20260905223857 17 0.0 0.0 0.00 0.43 0.00 77 1029.5
20260905222906 17 0.0 0.0 0.00 0.43 0.00 77 1029.3
20260905221902 17 0.0 0.0 0.00 0.43 0.00 76 1029.3
20260905220910 17 0.0 0.0 0.00 0.43 0.00 73 1029.2
20260905215904 17 0.0 0.0 0.00 0.43 0.00 71 1029.1
20260905214859 17 0.0 0.0 0.00 0.43 0.43 71 1029.0
20260905213908 17 0.0 0.0 0.00 0.43 0.43 70 1029.0
20260905212902 18 0.0 0.0 0.00 0.43 0.43 70 1028.9
20260905211910 18 315 0.0 1.6 0.00 0.43 0.43 69 1028.9
20260905210925 18 0.0 1.6 0.00 0.43 0.43 69 1028.8
20260905205859 18 96 0.0 3.2 0.00 0.43 0.43 69 1028.7
20260905204928 18 0.0 1.6 0.00 0.43 0.43 68 1028.7
20260905203903 18 327 0.0 3.2 0.00 0.43 0.43 67 1028.7
20260905202857 18 0.0 0.0 0.00 0.43 0.43 66 1028.8
20260905201907 18 320 0.0 3.2 0.00 0.43 0.43 66 1028.7
20260905200921 18 72 0.0 4.8 0.00 0.43 0.43 66 1028.7
20260905195855 18 0.0 0.0 0.00 0.43 0.43 66 1028.7
20260905194905 18 180 0.0 3.2 0.00 0.43 0.43 65 1028.5
20260905193900 18 67 0.0 3.2 0.00 0.43 0.43 64 1028.5
20260905192910 18 324 1.6 3.2 0.00 0.43 0.43 63 1028.4
20260905191903 18 315 0.0 3.2 0.00 0.43 0.43 63 1028.4
20260905190918 19 0.0 3.2 0.00 0.43 0.43 62 1028.4
20260905185907 19 315 1.6 3.2 0.00 0.43 0.43 62 1028.4
20260905184922 19 270 0.0 3.2 0.00 0.43 0.43 62 1028.1
20260905183931 20 0 0.0 1.6 0.00 0.43 0.43 62 1028.0
20260905182902 20 352 0.0 4.8 0.00 0.43 0.43 62 1027.9
20260905181911 20 260 0.0 4.8 0.00 0.43 0.43 61 1027.8
20260905180905 20 300 1.6 4.8 0.00 0.43 0.43 61 1027.8
20260905175859 21 306 1.6 4.8 0.00 0.43 0.43 60 1027.6
20260905174908 21 142 3.2 6.4 0.00 0.43 0.43 60 1027.4
20260905173902 21 348 1.6 8.0 0.00 0.43 0.43 60 1027.4
20260905172857 21 76 3.2 6.4 0.00 0.43 0.43 59 1027.3
20260905171906 22 184 1.6 8.0 0.00 0.43 0.43 58 1027.3
20260905170921 22 292 3.2 6.4 0.00 0.43 0.43 57 1027.3
20260905165910 22 341 1.6 6.4 0.00 0.43 0.43 55 1027.2
20260905164905 22 227 3.2 6.4 0.00 0.43 0.43 55 1027.2
20260905163859 22 274 3.2 8.0 0.00 0.43 0.43 54 1027.2
20260905162906 22 50 1.6 6.4 0.00 0.43 0.43 53 1027.1
20260905161900 22 325 3.2 6.4 0.00 0.43 0.43 53 1027.0
20260905160910 22 360 4.8 9.7 0.00 0.43 0.43 52 1027.1
20260905155904 22 304 3.2 8.0 0.00 0.43 0.43 53 1026.9
20260905154859 23 337 4.8 9.7 0.00 0.43 0.43 52 1027.0
20260905153908 24 331 6.4 19.3 0.00 0.43 0.43 50 1026.9
20260905152902 26 267 4.8 16.1 0.00 0.43 0.43 48 1026.9
20260905151911 26 20 4.8 12.9 0.00 0.43 0.43 47 1026.9
20260905150905 26 333 6.4 11.3 0.00 0.43 0.43 47 1026.8
20260905145859 26 328 6.4 11.3 0.00 0.43 0.43 47 1026.8
20260905145009 25 269 6.4 11.3 0.00 0.43 0.43 49 1026.8
20260905143902 25 317 8.0 12.9 0.00 0.43 0.43 49 1026.9
20260905142917 25 325 8.0 19.3 0.00 0.43 0.43 50 1026.9
20260905141928 25 342 6.4 14.5 0.00 0.43 0.43 49 1026.8
20260905140900 25 302 6.4 17.7 0.00 0.43 0.43 48 1026.8
20260905135910 26 266 6.4 11.3 0.00 0.43 0.43 48 1026.8
20260905134904 25 341 6.4 11.3 0.00 0.43 0.43 49 1026.8
20260905133859 25 4 4.8 11.3 0.00 0.43 0.43 50 1026.9
20260905132909 25 343 4.8 12.9 0.00 0.43 0.43 50 1027.2
20260905131903 25 20 6.4 11.3 0.00 0.43 0.43 50 1027.2
20260905130857 25 305 8.0 20.9 0.00 0.43 0.43 50 1027.3
20260905125906 25 85 4.8 8.0 0.00 0.43 0.43 51 1027.4
20260905124900 24 346 6.4 14.5 0.00 0.43 0.43 51 1027.5
20260905123909 24 353 8.0 14.5 0.00 0.43 0.43 51 1027.5
20260905122924 25 319 8.0 16.1 0.00 0.43 0.43 51 1027.5
20260905121918 25 63 6.4 14.5 0.00 0.43 0.43 51 1027.4
20260905120906 25 343 4.8 9.7 0.00 0.43 0.43 52 1027.4
20260905115859 24 313 4.8 8.0 0.00 0.43 0.43 54 1027.4
20260905114909 23 42 4.8 11.3 0.00 0.43 0.43 56 1027.4
20260905113903 23 287 6.4 11.3 0.00 0.43 0.43 57 1027.3
20260905112858 23 14 4.8 8.0 0.00 0.43 0.43 58 1027.4
20260905111907 23 356 3.2 16.1 0.00 0.43 0.43 60 1027.5
20260905110922 22 348 6.4 17.7 0.00 0.43 0.43 61 1027.6
20260905105911 23 347 6.4 12.9 0.00 0.43 0.43 59 1027.5
20260905104906 22 329 6.4 11.3 0.00 0.43 0.43 62 1027.4
20260905103859 22 144 4.8 11.3 0.00 0.43 0.43 69 1027.5
20260905102908 22 302 4.8 9.7 0.00 0.43 0.43 65 1027.6
20260905101903 22 161 4.8 8.0 0.00 0.43 0.43 72 1027.5
20260905100912 21 222 4.8 11.3 0.00 0.43 0.43 81 1027.5
20260905095905 20 286 3.2 9.7 0.00 0.43 0.43 87 1027.2
20260905094859 18 241 1.6 6.4 0.00 0.43 0.43 88 1027.4
20260905093907 17 307 1.6 6.4 0.00 0.43 0.43 89 1027.6
20260905092859 17 312 1.6 4.8 0.03 0.43 0.43 88 1027.8
20260905091905 17 259 0.0 3.2 0.05 0.43 0.43 91 1027.6
20260905090858 17 300 1.6 3.2 0.05 0.43 0.43 90 1027.5
20260905085928 17 355 0.0 3.2 0.10 0.43 0.43 90 1027.7
20260905084902 17 0.0 0.0 0.10 0.43 0.43 89 1027.6
20260905083856 17 335 0.0 3.2 0.13 0.43 0.43 89 1027.7
20260905082925 17 304 1.6 4.8 0.13 0.38 0.38 89 1027.5
20260905081900 17 87 1.6 3.2 0.15 0.36 0.36 89 1027.3
20260905080909 16 131 0.0 3.2 0.20 0.36 0.36 89 1027.3
20260905075903 16 318 1.6 4.8 0.18 0.33 0.33 88 1027.4
20260905074859 16 349 1.6 3.2 0.18 0.33 0.33 88 1027.4
20260905073907 16 327 1.6 4.8 0.15 0.30 0.30 87 1027.3
20260905072902 16 343 0.0 3.2 0.13 0.28 0.28 86 1027.1
20260905071936 16 348 0.0 4.8 0.05 0.20 0.20 86 1027.0
20260905070905 16 146 1.6 4.8 0.00 0.15 0.15 86 1026.8
20260905065920 16 125 1.6 6.4 0.03 0.15 0.15 85 1026.8
20260905064910 16 55 1.6 4.8 0.15 0.15 0.15 84 1026.8
20260905063904 17 324 3.2 6.4 0.15 0.15 0.15 82 1026.5
20260905062858 17 126 1.6 4.8 0.15 0.15 0.15 81 1026.1
20260905061907 17 121 4.8 8.0 0.15 0.15 0.15 81 1025.7
20260905060902 17 21 3.2 6.4 0.15 0.15 0.15 71 1025.6
20260905055909 18 326 3.2 11.3 0.13 0.13 0.13 65 1026.3
20260905054904 19 25 4.8 9.7 0.00 0.00 0.00 62 1025.0
20260905053858 20 12 6.4 11.3 0.00 0.00 0.00 60 1024.1
20260905052926 20 169 1.6 4.8 0.00 0.00 0.00 58 1024.2
20260905051901 20 17 4.8 11.3 0.00 0.00 0.00 56 1024.0
20260905050910 20 125 4.8 11.3 0.00 0.00 0.00 59 1023.2
20260905045925 20 47 3.2 4.8 0.00 0.00 0.00 61 1022.9
20260905044856 21 26 1.6 6.4 0.00 0.00 0.00 63 1022.4
20260905043905 21 357 1.6 3.2 0.00 0.00 0.00 66 1022.1
20260905042900 21 215 1.6 4.8 0.00 0.00 0.00 68 1021.7
20260905041929 21 105 3.2 6.4 0.00 0.00 0.00 72 1021.7
20260905040903 21 214 1.6 6.4 0.00 0.00 0.00 75 1021.5
20260905035858 21 315 0.0 3.2 0.00 0.00 0.00 76 1021.0
20260905034907 21 323 1.6 6.4 0.00 0.00 0.00 78 1021.1
20260905033901 21 315 0.0 3.2 0.00 0.00 0.00 78 1020.8
20260905032908 21 315 0.0 1.6 0.00 0.00 0.00 78 1020.9
20260905031902 21 322 0.0 3.2 0.00 0.00 0.00 79 1020.8
20260905030856 21 246 3.2 6.4 0.00 0.00 0.00 79 1020.7
20260905025905 21 300 1.6 4.8 0.00 0.00 0.00 80 1020.6
20260905024919 20 62 3.2 4.8 0.00 0.00 0.00 82 1020.6
20260905023929 20 136 1.6 4.8 0.00 0.00 0.00 81 1020.5
20260905022923 20 315 0.0 3.2 0.00 0.00 0.00 80 1020.3
20260905021857 20 118 1.6 6.4 0.00 0.00 0.00 78 1020.2
20260905020906 21 215 0.0 3.2 0.00 0.00 0.00 72 1020.2
20260905020001 21 256 3.2 8.0 0.00 0.00 0.00 69 1019.9
20260905014910 22 333 1.6 6.4 0.00 0.00 0.00 57 1020.2
20260905013905 22 231 0.0 4.8 0.00 0.00 0.00 58 1019.9
20260905012859 22 306 1.6 3.2 0.00 0.00 0.00 61 1019.7
20260905011948 21 315 0.0 3.2 0.00 0.00 0.00 62 1019.5
20260905010917 20 135 0.0 3.2 0.00 0.00 0.00 66 1019.7
20260905005903 20 315 0.0 3.2 0.00 0.00 0.00 70 1019.7
20260905004858 18 8 0.0 3.2 0.00 0.00 0.00 72 1019.7
20260905003907 18 0.0 1.6 0.00 0.00 0.00 73 1019.6
20260905002902 18 0.0 1.6 0.00 0.00 0.00 73 1019.6
20260905002010 18 0.0 0.0 0.00 0.00 0.00 72 1019.7
20260905000903 18 0.0 0.0 0.00 0.00 0.00 72 1019.4
20260904235859 18 0.0 0.0 0.00 0.00 0.00 72 1019.4